Weather History for Washington, GA

Change the Weather History Date:

Monday, October 22, 2012

  Actual Average (KDBN) Record (KDBN)
Temperature  
Mean Temperature 62 °F -  
Max Temperature 78 °F 76 °F 91 °F (1984)
Min Temperature 46 °F 47 °F 31 °F (1976)
Degree Days  
Heating Degree Days 3    
Growing Degree Days 12 (Base 50)    
Moisture  
Dew Point 44 °F    
Average Humidity 55    
Maximum Humidity 93    
Minimum Humidity 24    
Precipitation  
Precipitation 0.00 in - - ()
Sea Level Pressure  
Sea Level Pressure 30.18 in    
Wind  
Wind Speed 0 mph ()    
Max Wind Speed 6 mph    
Max Gust Speed -    
Visibility 10.0 miles    
Events      
Averages and records for this station are not official NWS values.
T = Trace of Precipitation, MM = Missing Value Source: Averaged Metar Reports

Daily Weather History Graph

Daily Weather History Graph

Search for Another Location

Airport:

Trip Planner

Search our weather history database for the weather conditions in past years. The results will help you decide how hot, cold, wet, or windy it might be!

Date:

Astronomy

Oct. 22, 2012 Rise Set
Actual Time 7:42 AM EDT 6:48 PM EDT
Civil Twilight 7:16 AM EDT 7:13 PM EDT
Nautical Twilight 6:47 AM EDT 7:43 PM EDT
Astronomical Twilight 6:18 AM EDT 8:11 PM EDT
Moon 2:38 PM EDT (10/22) 12:47 AM EDT (10/22)
Length of Visible Light 11h 57m
Length of Day
11h 06m
First Quarter, 56% of the Moon is Illuminated
Oct 22
First Quarter
Oct 29
Full
Nov 6
Last Quarter
Nov 13
New
Nov 20
First Quarter

Hourly Weather History & Observations

Time (EDT) Temp. Dew Point Humidity Pressure Visibility Wind Dir Wind Speed Gust Speed Precip Events Conditions
12:35 AM 53.6 °F 44.6 °F 72% 30.15 in 10.0 mi Calm Calm - N/A   Clear
12:55 AM 53.6 °F 44.6 °F 72% 30.15 in 10.0 mi Calm Calm - N/A   Clear
1:35 AM 51.8 °F 44.6 °F 76% 30.16 in 10.0 mi Calm Calm - N/A   Clear
1:55 AM 51.8 °F 44.6 °F 76% 30.16 in 10.0 mi Calm Calm - N/A   Clear
2:35 AM 50.0 °F 44.6 °F 82% 30.15 in 10.0 mi Calm Calm - N/A   Clear
2:55 AM 50.0 °F 44.6 °F 82% 30.15 in 10.0 mi Calm Calm - N/A   Clear
3:55 AM 48.2 °F 44.6 °F 87% 30.16 in 10.0 mi Calm Calm - N/A   Clear
4:15 AM 48.2 °F 44.6 °F 87% 30.16 in 10.0 mi Calm Calm - N/A   Clear
4:55 AM 46.4 °F 44.6 °F 93% 30.16 in 10.0 mi Calm Calm - N/A   Clear
5:55 AM 46.4 °F 42.8 °F 87% 30.18 in 10.0 mi Calm Calm - N/A   Clear
6:15 AM 46.4 °F 44.6 °F 93% 30.18 in 10.0 mi Calm Calm - N/A   Clear
6:35 AM 46.4 °F 44.6 °F 93% 30.19 in 10.0 mi Calm Calm - N/A   Clear
6:55 AM 46.4 °F 44.6 °F 93% 30.20 in 10.0 mi Calm Calm - N/A   Clear
7:15 AM 46.4 °F 44.6 °F 93% 30.20 in 10.0 mi Calm Calm - N/A   Clear
7:35 AM 46.4 °F 44.6 °F 93% 30.21 in 10.0 mi Calm Calm - N/A   Clear
8:15 AM 46.4 °F 44.6 °F 93% 30.22 in 10.0 mi Calm Calm - N/A   Clear
8:35 AM 50.0 °F 46.4 °F 87% 30.23 in 10.0 mi Calm Calm - N/A   Clear
10:35 AM 64.4 °F 44.6 °F 49% 30.24 in 10.0 mi Calm Calm - N/A   Clear
10:55 AM 66.2 °F 42.8 °F 43% 30.24 in 10.0 mi Calm Calm - N/A   Clear
11:15 AM 68.0 °F 41.0 °F 37% 30.23 in 10.0 mi Calm Calm - N/A   Clear
11:35 AM 69.8 °F 42.8 °F 38% 30.24 in 10.0 mi Calm Calm - N/A   Clear
11:55 AM 73.4 °F 44.6 °F 36% 30.24 in 10.0 mi Calm Calm - N/A   Clear
12:35 PM 73.4 °F 42.8 °F 33% 30.24 in 10.0 mi East 3.5 mph - N/A   Clear
12:55 PM 73.4 °F 42.8 °F 33% 30.23 in 10.0 mi SSW 4.6 mph - N/A   Clear
1:15 PM 73.4 °F 42.8 °F 33% 30.22 in 10.0 mi Calm Calm - N/A   Clear
1:35 PM 75.2 °F 41.0 °F 29% 30.21 in 10.0 mi Calm Calm - N/A   Clear
1:55 PM 77.0 °F 41.0 °F 28% 30.20 in 10.0 mi Calm Calm - N/A   Clear
2:15 PM 77.0 °F 41.0 °F 28% 30.19 in 10.0 mi South 3.5 mph - N/A   Clear
2:35 PM 78.8 °F 42.8 °F 28% 30.17 in 10.0 mi Calm Calm - N/A   Clear
2:55 PM 78.8 °F 41.0 °F 26% 30.16 in 10.0 mi SSE 3.5 mph - N/A   Clear
3:15 PM 78.8 °F 41.0 °F 26% 30.15 in 10.0 mi SE 4.6 mph - N/A   Clear
3:35 PM 78.8 °F 41.0 °F 26% 30.15 in 10.0 mi Calm Calm - N/A   Clear
4:15 PM 78.8 °F 41.0 °F 26% 30.14 in 10.0 mi Calm Calm - N/A   Clear
4:35 PM 78.8 °F 39.2 °F 24% 30.14 in 10.0 mi East 5.8 mph - N/A   Clear
4:55 PM 78.8 °F 39.2 °F 24% 30.14 in 10.0 mi Calm Calm - N/A   Clear
5:15 PM 78.8 °F 39.2 °F 24% 30.13 in 10.0 mi Calm Calm - N/A   Clear
5:35 PM 78.8 °F 39.2 °F 24% 30.13 in 10.0 mi ESE 4.6 mph - N/A   Clear
6:15 PM 77.0 °F 41.0 °F 28% 30.13 in 10.0 mi East 3.5 mph - N/A   Clear
6:35 PM 73.4 °F 44.6 °F 36% 30.14 in 10.0 mi Calm Calm - N/A   Clear
6:55 PM 71.6 °F 46.4 °F 41% 30.14 in 10.0 mi Calm Calm - N/A   Clear
7:15 PM 66.2 °F 44.6 °F 46% 30.15 in 10.0 mi Calm Calm - N/A   Clear
7:35 PM 64.4 °F 46.4 °F 52% 30.15 in 10.0 mi Calm Calm - N/A   Clear
7:55 PM 64.4 °F 46.4 °F 52% 30.16 in 10.0 mi Calm Calm - N/A   Clear
8:35 PM 60.8 °F 46.4 °F 59% 30.16 in 10.0 mi Calm Calm - N/A   Clear
9:35 PM 60.8 °F 46.4 °F 59% 30.18 in 10.0 mi Calm Calm - N/A   Clear
9:55 PM 59.0 °F 46.4 °F 63% 30.19 in 10.0 mi Calm Calm - N/A   Clear
10:15 PM 59.0 °F 48.2 °F 67% 30.19 in 10.0 mi SE 3.5 mph - N/A   Clear
10:55 PM 59.0 °F 48.2 °F 67% 30.19 in 10.0 mi Calm Calm - N/A   Clear
11:35 PM 59.0 °F 50.0 °F 72% 30.19 in 10.0 mi Calm Calm - N/A   Clear